DAL1959 KBLI-KCLM

Flight info

Callsign DAL1959
Flight time 0h 19m
Altitude 13000
Route KLSHN2 KLSHN CVV WATTR
Aircraft B737/M-SDE2E3FGHIRWXY/LB1

Departure

Time 2026-04-12 11:09
Airport Bellingham International Airport (KBLI)

Arrival

Time 2026-04-12 11:28
Airport William R Fairchild International Airport (KCLM)
Time Latitude Longitude Altitude Speed Heading
2026-04-12 10:49 48.79582 -122.53450 165 ft 0 kts 81°
2026-04-12 11:03 48.79582 -122.53454 165 ft 3 kts 82°
2026-04-12 11:03 48.79583 -122.53492 166 ft 4 kts 124°
2026-04-12 11:03 48.79602 -122.53510 167 ft 3 kts 179°
2026-04-12 11:04 48.79608 -122.53510 167 ft 2 kts 180°
2026-04-12 11:04 48.79608 -122.53509 167 ft 0 kts 180°
2026-04-12 11:06 48.79606 -122.53510 167 ft 2 kts 180°
2026-04-12 11:06 48.79560 -122.53503 167 ft 11 kts 167°
2026-04-12 11:06 48.79476 -122.53448 167 ft 15 kts 188°
2026-04-12 11:06 48.79390 -122.53545 169 ft 17 kts 219°
2026-04-12 11:07 48.79280 -122.53584 171 ft 16 kts 179°
2026-04-12 11:07 48.79168 -122.53582 172 ft 16 kts 180°
2026-04-12 11:07 48.79052 -122.53583 175 ft 18 kts 180°
2026-04-12 11:07 48.78926 -122.53586 179 ft 18 kts 181°
2026-04-12 11:08 48.78798 -122.53593 180 ft 19 kts 182°
2026-04-12 11:08 48.78659 -122.53586 180 ft 21 kts 173°
2026-04-12 11:08 48.78505 -122.53562 177 ft 24 kts 174°
2026-04-12 11:08 48.78359 -122.53603 176 ft 17 kts 239°
2026-04-12 11:09 48.78398 -122.53749 178 ft 18 kts 348°
2026-04-12 11:09 48.78727 -122.53748 178 ft 91 kts 360°
2026-04-12 11:09 48.79631 -122.53772 263 ft 162 kts 357°
2026-04-12 11:09 48.80803 -122.54017 1161 ft 169 kts 349°
2026-04-12 11:10 48.82006 -122.54531 2078 ft 185 kts 329°
2026-04-12 11:10 48.83013 -122.56030 2495 ft 227 kts 296°
2026-04-12 11:10 48.83272 -122.58515 2893 ft 256 kts 260°
2026-04-12 11:10 48.82487 -122.60937 2983 ft 260 kts 224°
2026-04-12 11:11 48.80891 -122.62194 3003 ft 263 kts 188°
2026-04-12 11:11 48.79129 -122.61831 3019 ft 262 kts 159°
2026-04-12 11:11 48.77423 -122.60850 3003 ft 263 kts 161°
2026-04-12 11:11 48.75668 -122.60055 3004 ft 263 kts 166°
2026-04-12 11:12 48.73868 -122.59459 3000 ft 264 kts 169°
2026-04-12 11:12 48.72059 -122.59014 2996 ft 264 kts 172°
2026-04-12 11:12 48.70233 -122.58646 3000 ft 264 kts 173°
2026-04-12 11:12 48.68406 -122.58306 2999 ft 264 kts 173°
2026-04-12 11:13 48.66578 -122.57990 2994 ft 263 kts 176°
2026-04-12 11:13 48.64759 -122.58269 3009 ft 262 kts 193°
2026-04-12 11:13 48.63014 -122.58919 2998 ft 262 kts 194°
2026-04-12 11:13 48.61243 -122.59603 2996 ft 262 kts 194°
2026-04-12 11:14 48.59476 -122.60255 3000 ft 262 kts 193°
2026-04-12 11:14 48.57691 -122.60893 3002 ft 262 kts 193°
2026-04-12 11:14 48.55932 -122.61515 3019 ft 262 kts 193°
2026-04-12 11:14 48.54150 -122.62138 3428 ft 266 kts 193°
2026-04-12 11:15 48.52336 -122.62770 4725 ft 265 kts 193°
2026-04-12 11:15 48.50524 -122.63399 5936 ft 268 kts 193°
2026-04-12 11:15 48.48685 -122.64032 7038 ft 274 kts 193°
2026-04-12 11:15 48.46830 -122.64672 8111 ft 279 kts 193°
2026-04-12 11:16 48.44898 -122.65347 9177 ft 286 kts 193°
2026-04-12 11:16 48.42959 -122.66026 10233 ft 289 kts 193°
2026-04-12 11:16 48.41004 -122.66705 10781 ft 311 kts 193°
2026-04-12 11:16 48.38774 -122.67477 10718 ft 340 kts 193°
2026-04-12 11:17 48.36470 -122.68272 10667 ft 338 kts 193°
2026-04-12 11:17 48.34164 -122.69067 10651 ft 340 kts 193°
2026-04-12 11:17 48.31870 -122.69858 10641 ft 340 kts 193°
2026-04-12 11:17 48.29569 -122.70651 10639 ft 340 kts 193°
2026-04-12 11:18 48.28017 -122.71186 10637 ft 340 kts 193°
2026-04-12 11:18 48.27064 -122.71513 10643 ft 339 kts 193°
2026-04-12 11:18 48.24874 -122.72769 10645 ft 339 kts 212°
2026-04-12 11:19 48.23101 -122.75110 10654 ft 338 kts 231°
2026-04-12 11:19 48.21727 -122.77877 10601 ft 324 kts 234°
2026-04-12 11:19 48.20458 -122.80551 10442 ft 301 kts 234°
2026-04-12 11:19 48.19289 -122.83016 10284 ft 281 kts 234°
2026-04-12 11:20 48.18177 -122.85337 9864 ft 274 kts 234°
2026-04-12 11:20 48.17059 -122.87642 9278 ft 273 kts 234°
2026-04-12 11:20 48.15928 -122.89957 8649 ft 275 kts 233°
2026-04-12 11:20 48.14808 -122.92248 8138 ft 270 kts 234°
2026-04-12 11:21 48.13734 -122.94520 7590 ft 269 kts 240°
2026-04-12 11:21 48.12917 -122.96999 7010 ft 264 kts 247°
2026-04-12 11:21 48.12201 -122.99525 6420 ft 263 kts 247°
2026-04-12 11:21 48.11488 -123.02046 5919 ft 264 kts 247°
2026-04-12 11:22 48.10760 -123.04538 5631 ft 260 kts 246°
2026-04-12 11:22 48.10023 -123.07017 5299 ft 257 kts 246°
2026-04-12 11:22 48.09295 -123.09446 4933 ft 258 kts 246°
2026-04-12 11:22 48.08573 -123.11842 4801 ft 247 kts 246°
2026-04-12 11:23 48.08144 -123.14237 4640 ft 233 kts 269°
2026-04-12 11:23 48.08197 -123.16642 4221 ft 229 kts 273°
2026-04-12 11:23 48.08291 -123.19021 3734 ft 228 kts 274°
2026-04-12 11:23 48.08380 -123.21315 3463 ft 216 kts 274°
2026-04-12 11:24 48.08456 -123.23460 3330 ft 197 kts 273°
2026-04-12 11:24 48.08522 -123.25425 3223 ft 180 kts 273°
2026-04-12 11:24 48.08583 -123.27236 3145 ft 172 kts 272°
2026-04-12 11:24 48.08639 -123.29016 3102 ft 169 kts 273°
2026-04-12 11:25 48.08691 -123.30694 3015 ft 158 kts 273°
2026-04-12 11:25 48.08797 -123.32345 2835 ft 161 kts 283°
2026-04-12 11:25 48.09068 -123.33918 2666 ft 152 kts 285°
2026-04-12 11:25 48.09329 -123.35396 2434 ft 142 kts 285°
2026-04-12 11:26 48.09576 -123.36772 2196 ft 133 kts 284°
2026-04-12 11:26 48.09785 -123.38123 2010 ft 132 kts 282°
2026-04-12 11:26 48.10021 -123.39443 1821 ft 134 kts 286°
2026-04-12 11:26 48.10278 -123.40784 1696 ft 134 kts 284°
2026-04-12 11:27 48.10521 -123.42124 1614 ft 138 kts 284°
2026-04-12 11:27 48.10783 -123.43607 1250 ft 153 kts 284°
2026-04-12 11:27 48.11059 -123.45193 962 ft 158 kts 284°
2026-04-12 11:27 48.11337 -123.46766 791 ft 153 kts 285°
2026-04-12 11:28 48.11595 -123.48211 543 ft 139 kts 282°
2026-04-12 11:28 48.11836 -123.49586 307 ft 133 kts 282°
2026-04-12 11:28 48.12020 -123.50659 294 ft 60 kts 285°
2026-04-12 11:28 48.12066 -123.50920 290 ft 20 kts 282°
2026-04-12 11:29 48.12093 -123.51117 290 ft 14 kts 274°
2026-04-12 11:29 48.12027 -123.51175 292 ft 12 kts 193°
2026-04-12 11:29 48.11984 -123.51114 291 ft 10 kts 98°
2026-04-12 11:29 48.11967 -123.50998 291 ft 13 kts 104°
2026-04-12 11:30 48.11943 -123.50854 291 ft 16 kts 104°
2026-04-12 11:30 48.11913 -123.50675 290 ft 19 kts 104°
2026-04-12 11:30 48.11879 -123.50485 290 ft 19 kts 108°
2026-04-12 11:30 48.11840 -123.50303 289 ft 18 kts 107°
2026-04-12 11:31 48.11813 -123.50124 289 ft 17 kts 101°
2026-04-12 11:31 48.11780 -123.50016 288 ft 8 kts 158°
2026-04-12 11:31 48.11761 -123.50015 287 ft 0 kts 188°